Location: Brodeslavy
(49.9527°N, 13.5567°E)
Time: 20:42:28
(UTC+00:00)

Cosmos 2242 Rocket - Pass Details

Date: 17 June 2025
Orbit: 613 x 646 km, 82.5° (Epoch: 16 July)

Event Time Altitude Azimuth Distance (km) Brightness Sun altitude
Exits shadow 22:56:13 26° 145° (SE) 1,243 4.6 -16.6°
Maximum altitude 22:58:11 41° 92° (E) 910 4.3 -16.6°
Drops below altitude 10° 23:02:22 10° 23° (NNE) 2,007 7.2 -16.6°
Sets 23:04:40 0° 16° (NNE) 2,914 8.5 -16.6°
